Change the Weather History Date:

Saturday, May 4, 2013

  Actual Average Record
Temperature  
Mean Temperature 37 °F -  
Max Temperature 43 °F 68 °F 90 °F (1952)
Min Temperature 32 °F 43 °F 30 °F (1954)
Degree Days  
Heating Degree Days 28    
Moisture  
Dew Point 36 °F    
Average Humidity 95    
Maximum Humidity 97    
Minimum Humidity 93    
Precipitation  
Precipitation 0.42 in - - ()
Sea Level Pressure  
Sea Level Pressure 30.01 in    
Wind  
Wind Speed 17 mph (North)    
Max Wind Speed 23 mph    
Max Gust Speed 31 mph    
Visibility 5 miles    
Events Rain    
Averages and records for this station are not official NWS values.
T = Trace of Precipitation, MM = Missing Value Source: NWS Daily Summary

Daily Weather History Graph

Daily Weather History Graph

Search for Another Location

Airport or City:

Trip Planner

Search our weather history database for the weather conditions in past years. The results will help you decide how hot, cold, wet, or windy it might be!

Date:

Astronomy

May. 04, 2013 Rise Set
Actual Time 6:07 AM CDT 8:17 PM CDT
Civil Twilight 5:36 AM CDT 8:48 PM CDT
Nautical Twilight 4:58 AM CDT 9:26 PM CDT
Astronomical Twilight 4:16 AM CDT 10:08 PM CDT
Moon 3:11 AM CDT (5/4) 3:11 PM CDT (5/4)
Length of Visible Light 15h 12m
Length of Day
14h 10m
Waning Crescent, 27% of the Moon is Illuminated
May 4
Waning Crescent
May 9
New
May 17
First Quarter
May 24
Full
May 31
Last Quarter

Hourly Weather History & Observations

Time (CDT) Temp. Windchill Dew Point Humidity Pressure Visibility Wind Dir Wind Speed Gust Speed Precip Events Conditions
12:15 AM 32.4 °F 20.6 °F 31.1 °F 95% 29.98 in 10.0 mi North 19.6 mph 25.3 mph N/A Rain Rain
12:35 AM 32.4 °F 20.3 °F 31.3 °F 96% 29.97 in 10.0 mi North 20.7 mph 29.9 mph N/A   Light Drizzle
12:55 AM 32.4 °F 20.0 °F 31.5 °F 96% 29.97 in 10.0 mi North 21.9 mph 27.6 mph N/A   Light Drizzle
1:15 AM 32.5 °F 20.8 °F 31.5 °F 96% 29.96 in 10.0 mi North 19.6 mph 25.3 mph N/A   Light Drizzle
1:35 AM 32.5 °F 20.8 °F 31.6 °F 96% 29.96 in 10.0 mi North 19.6 mph 25.3 mph N/A   Light Drizzle
1:55 AM 32.9 °F 20.4 °F 31.6 °F 95% 29.95 in 10.0 mi North 23.0 mph 31.1 mph N/A   Light Drizzle
2:15 AM 32.9 °F 21.3 °F 31.6 °F 95% 29.94 in 10.0 mi North 19.6 mph 27.6 mph N/A   Light Drizzle
2:35 AM 32.9 °F 22.0 °F 31.8 °F 96% 29.95 in 10.0 mi North 17.3 mph 21.9 mph 0.01 in Rain Light Rain
2:55 AM 32.9 °F 22.0 °F 32.0 °F 96% 29.95 in 10.0 mi North 17.3 mph 21.9 mph 0.01 in Rain Light Rain
3:15 AM 32.9 °F 21.0 °F 32.0 °F 96% 29.94 in 10.0 mi North 20.7 mph 25.3 mph 0.01 in Rain Light Rain
3:35 AM 32.9 °F 21.6 °F 31.8 °F 96% 29.93 in 10.0 mi North 18.4 mph 27.6 mph 0.01 in Rain Light Rain
3:55 AM 32.9 °F 21.0 °F 32.0 °F 96% 29.93 in 10.0 mi North 20.7 mph 25.3 mph 0.01 in   Light Drizzle
4:15 AM 32.9 °F 21.0 °F 32.0 °F 96% 29.92 in 10.0 mi North 20.7 mph - N/A   Light Drizzle
4:35 AM 33.1 °F 21.9 °F 32.0 °F 96% 29.93 in 10.0 mi North 18.4 mph 24.2 mph N/A   Light Drizzle
4:55 AM 33.3 °F 22.1 °F 32.0 °F 95% 29.93 in 10.0 mi North 18.4 mph - N/A   Overcast
5:15 AM 33.3 °F 21.8 °F 32.0 °F 95% 29.93 in 10.0 mi North 19.6 mph - N/A   Light Drizzle
5:35 AM 33.4 °F 22.0 °F 32.2 °F 95% 29.93 in 10.0 mi North 19.6 mph - N/A Rain Light Rain
5:55 AM 33.6 °F 22.9 °F 32.2 °F 94% 29.94 in 10.0 mi North 17.3 mph - N/A   Light Drizzle
6:15 AM 33.8 °F 23.2 °F 32.4 °F 94% 29.94 in 10.0 mi North 17.3 mph - N/A Rain Light Rain
6:35 AM 33.8 °F 23.5 °F 32.4 °F 94% 29.94 in 7.0 mi North 16.1 mph - N/A   Overcast
6:55 AM 33.8 °F 23.5 °F 32.4 °F 94% 29.94 in 10.0 mi North 16.1 mph - N/A   Overcast
7:15 AM 33.8 °F 23.5 °F 32.5 °F 95% 29.95 in 7.0 mi North 16.1 mph - N/A   Overcast
7:35 AM 34.0 °F 23.4 °F 32.9 °F 96% 29.95 in 4.0 mi North 17.3 mph - N/A   Overcast
7:55 AM 34.0 °F 23.4 °F 32.9 °F 96% 29.95 in 3.0 mi North 17.3 mph - N/A   Overcast
8:15 AM 34.3 °F 24.2 °F 33.1 °F 95% 29.96 in 3.0 mi North 16.1 mph - N/A   Overcast
8:35 AM 34.3 °F 24.2 °F 33.1 °F 95% 29.96 in 3.0 mi North 16.1 mph - N/A Rain Light Rain
8:55 AM 34.7 °F 25.1 °F 33.3 °F 94% 29.96 in 3.0 mi North 15.0 mph - 0.01 in Rain Light Rain
9:15 AM 34.7 °F 24.3 °F 33.4 °F 95% 29.97 in 1.5 mi North 17.3 mph - N/A Rain Rain
9:35 AM 34.7 °F 24.3 °F 33.8 °F 97% 29.98 in 1.2 mi North 17.3 mph - N/A   Light Drizzle
9:55 AM 34.9 °F 24.9 °F 33.8 °F 96% 29.99 in 1.0 mi North 16.1 mph - 0.01 in   Light Drizzle
10:15 AM 35.1 °F 25.5 °F 34.0 °F 96% 29.99 in 0.8 mi North 15.0 mph - N/A Rain Light Rain
10:35 AM 35.4 °F 26.8 °F 34.2 °F 95% 30.01 in 1.0 mi North 12.7 mph - N/A Rain Light Rain
10:55 AM 35.6 °F 26.6 °F 34.7 °F 97% 30.01 in 1.2 mi North 13.8 mph - N/A Rain Light Rain
11:15 AM 36.1 °F 26.9 °F 35.1 °F 96% 30.02 in 2.0 mi North 15.0 mph - N/A   Light Drizzle
11:35 AM 36.5 °F 28.2 °F 35.6 °F 97% 30.02 in 2.5 mi North 12.7 mph - N/A   Light Drizzle
11:55 AM 36.5 °F 27.4 °F 35.6 °F 97% 30.02 in 2.5 mi North 15.0 mph - N/A   Light Drizzle
12:15 PM 37.0 °F 29.3 °F 36.0 °F 96% 30.03 in 3.0 mi North 11.5 mph - N/A   Overcast
12:35 PM 37.8 °F 30.7 °F 36.7 °F 96% 30.03 in 4.0 mi North 10.4 mph - N/A   Overcast
12:55 PM 38.3 °F 30.5 °F 37.2 °F 96% 30.03 in 4.0 mi North 12.7 mph - N/A   Overcast
1:15 PM 39.2 °F 31.6 °F 37.9 °F 95% 30.03 in 5.0 mi North 12.7 mph - N/A   Overcast
1:35 PM 39.6 °F 31.7 °F 38.5 °F 96% 30.03 in 5.0 mi North 13.8 mph - N/A   Overcast
1:55 PM 40.6 °F 33.4 °F 39.6 °F 96% 30.03 in 5.0 mi North 12.7 mph - N/A   Overcast
2:15 PM 41.2 °F 34.5 °F 40.1 °F 96% 30.03 in 4.0 mi North 11.5 mph - N/A   Overcast
2:35 PM 41.9 °F 35.9 °F 40.5 °F 95% 30.03 in 4.0 mi North 10.4 mph - N/A   Overcast
2:55 PM 42.6 °F 36.3 °F 41.0 °F 94% 30.03 in 4.0 mi North 11.5 mph - N/A   Overcast
3:15 PM 42.8 °F 37.0 °F 41.2 °F 94% 30.03 in 3.0 mi North 10.4 mph - N/A   Overcast
3:35 PM 42.8 °F 37.0 °F 41.0 °F 93% 30.03 in 3.0 mi North 10.4 mph - N/A   Drizzle
3:55 PM 42.8 °F 35.8 °F 41.2 °F 94% 30.03 in 3.0 mi North 13.8 mph - N/A   Overcast
4:15 PM 42.4 °F 35.7 °F 40.6 °F 93% 30.03 in 3.0 mi NNW 12.7 mph - N/A   Overcast
4:35 PM 41.9 °F 35.4 °F 40.1 °F 93% 30.03 in 3.0 mi NNW 11.5 mph - N/A   Overcast
4:55 PM 41.9 °F 35.4 °F 40.3 °F 94% 30.03 in 4.0 mi NNW 11.5 mph - N/A   Light Drizzle
5:15 PM 41.4 °F 34.0 °F 39.4 °F 93% 30.03 in 4.0 mi NNW 13.8 mph - N/A Rain Rain
5:35 PM 40.6 °F 33.4 °F 39.2 °F 95% 30.04 in 3.0 mi NNW 12.7 mph - 0.01 in Rain Light Rain
5:55 PM 40.6 °F 33.0 °F 39.2 °F 95% 30.04 in 3.0 mi NNW 13.8 mph - 0.02 in Rain Rain
6:15 PM 40.3 °F 31.9 °F 38.7 °F 94% 30.05 in 4.0 mi NNW 16.1 mph - N/A Rain Light Rain
6:35 PM 39.6 °F 30.6 °F 38.1 °F 95% 30.05 in 3.0 mi NNW 17.3 mph - N/A Rain Light Rain
6:55 PM 39.2 °F 30.5 °F 37.6 °F 94% 30.05 in 4.0 mi NNW 16.1 mph 21.9 mph N/A Rain Light Rain
7:15 PM 39.6 °F 31.0 °F 37.9 °F 94% 30.06 in 4.0 mi North 16.1 mph - N/A Rain Rain
7:35 PM 39.7 °F 31.2 °F 38.3 °F 95% 30.05 in 4.0 mi NNW 16.1 mph - N/A Rain Light Rain
7:55 PM 39.6 °F 30.3 °F 37.9 °F 94% 30.05 in 3.0 mi NNW 18.4 mph - 0.02 in Rain Light Rain
8:15 PM 40.1 °F 31.3 °F 38.5 °F 94% 30.06 in 4.0 mi NNW 17.3 mph - 0.01 in   Light Drizzle
8:35 PM 40.1 °F 31.6 °F 38.5 °F 94% 30.07 in 4.0 mi North 16.1 mph - 0.01 in Rain Light Rain
8:55 PM 40.1 °F 31.3 °F 38.7 °F 95% 30.06 in 4.0 mi NNW 17.3 mph - 0.03 in Rain Light Rain
9:15 PM 40.6 °F 32.7 °F 39.4 °F 95% 30.07 in 4.0 mi North 15.0 mph 21.9 mph 0.02 in Rain Light Rain
9:35 PM 41.0 °F 32.5 °F 39.6 °F 95% 30.08 in 3.0 mi North 17.3 mph 21.9 mph 0.09 in Rain Rain
9:55 PM 41.0 °F 33.9 °F 39.4 °F 94% 30.08 in 5.0 mi North 12.7 mph 18.4 mph 0.13 in Rain Rain
10:15 PM 41.0 °F 32.5 °F 39.4 °F 94% 30.09 in 5.0 mi NNW 17.3 mph - 0.01 in Rain Rain
10:35 PM 41.2 °F 33.0 °F 39.7 °F 95% 30.09 in 4.0 mi North 16.1 mph - 0.03 in Rain Light Rain
10:55 PM 41.0 °F 33.9 °F 39.4 °F 94% 30.10 in 2.5 mi NNW 12.7 mph 19.6 mph 0.06 in Rain Light Rain
11:15 PM 40.5 °F 33.6 °F 39.2 °F 95% 30.10 in 2.0 mi NNW 11.5 mph - 0.08 in Rain Light Rain
11:35 PM 40.5 °F 32.5 °F 39.2 °F 95% 30.09 in 2.0 mi NNW 15.0 mph - 0.11 in Rain Light Rain
11:55 PM 40.5 °F 34.1 °F 39.2 °F 95% 30.10 in 1.8 mi NNW 10.4 mph - 0.12 in Rain Rain